FW4608 Weather Reports


time (UTC)temp
C
wind
direction
speed
KPH
gust
KPH
rain 1hr
cm
rain 24hr
cm
rain mn
cm
humidity
%
barometer
mb
20260901201039 31 99 1.6 6.4 0.00 0.03 0.03 76 1016.6
20260901200538 31 300 0.0 6.4 0.00 0.03 0.03 79 1016.5
20260901200057 31 153 0.0 6.4 0.00 0.03 0.03 77 1016.6
20260901195536 31 90 0.0 4.8 0.00 0.03 0.03 76 1016.6
20260901195035 31 243 0.0 4.8 0.00 0.03 0.03 78 1016.6
20260901194544 30 309 0.0 4.8 0.00 0.03 0.03 77 1016.7
20260901194036 31 101 0.0 3.2 0.00 0.03 0.03 79 1016.6
20260901193534 31 269 0.0 4.8 0.00 0.03 0.03 78 1016.6
20260901193033 31 258 0.0 3.2 0.00 0.03 0.03 78 1016.5
20260901192532 31 293 0.0 4.8 0.00 0.03 0.03 78 1016.4
20260901192031 31 278 0.0 6.4 0.00 0.03 0.03 76 1016.4
20260901191539 31 243 0.0 4.8 0.00 0.03 0.03 77 1016.4
20260901191029 31 92 0.0 3.2 0.00 0.03 0.03 75 1016.3
20260901190530 31 117 0.0 4.8 0.00 0.03 0.03 76 1016.3
20260901190039 31 52 0.0 4.8 0.00 0.03 0.03 74 1016.3
20260901185531 32 305 0.0 4.8 0.00 0.03 0.03 73 1016.3
20260901185029 32 116 0.0 4.8 0.00 0.03 0.03 73 1016.2
20260901184531 33 293 0.0 6.4 0.00 0.03 0.03 71 1016.3
20260901184027 33 319 1.6 6.4 0.00 0.03 0.03 74 1016.3
20260901183525 32 306 0.0 4.8 0.00 0.03 0.03 73 1016.4
20260901183025 32 349 0.0 4.8 0.00 0.03 0.03 75 1016.6
20260901182524 32 185 0.0 11.3 0.00 0.03 0.03 75 1016.6
20260901182024 32 19 1.6 11.3 0.00 0.03 0.03 73 1016.7
20260901181528 32 302 0.0 4.8 0.00 0.03 0.03 73 1016.7
20260901181023 32 245 0.0 8.0 0.00 0.03 0.03 73 1016.8
20260901180522 32 315 0.0 8.0 0.00 0.03 0.03 75 1016.9
20260901180022 31 111 0.0 3.2 0.00 0.03 0.03 74 1016.9
20260901175525 31 320 0.0 6.4 0.00 0.03 0.03 74 1017.0
20260901175020 32 255 0.0 4.8 0.00 0.03 0.03 73 1016.9
20260901174534 32 320 0.0 4.8 0.00 0.03 0.03 73 1017.1
20260901174026 33 277 0.0 4.8 0.00 0.03 0.03 69 1017.2
20260901173517 33 161 0.0 4.8 0.00 0.03 0.03 72 1017.1
20260901173023 33 240 0.0 4.8 0.00 0.03 0.03 73 1017.1
20260901172513 33 6 0.0 4.8 0.00 0.03 0.03 73 1017.2
20260901172011 33 134 0.0 4.8 0.00 0.03 0.03 73 1017.2
20260901171509 33 277 0.0 6.4 0.00 0.03 0.03 72 1017.4
20260901171007 33 129 1.6 8.0 0.00 0.03 0.03 70 1017.3
20260901170509 33 342 0.0 6.4 0.00 0.03 0.03 75 1017.5
20260901170005 33 195 0.0 6.4 0.00 0.03 0.03 71 1017.5
20260901165505 33 95 0.0 6.4 0.00 0.03 0.03 73 1017.6
20260901165003 33 108 0.0 4.8 0.00 0.03 0.03 75 1017.7
20260901164601 32 162 0.0 4.8 0.00 0.03 0.03 76 1017.7
20260901164058 32 293 0.0 4.8 0.00 0.03 0.03 77 1017.7
20260901163557 31 148 0.0 3.2 0.00 0.03 0.03 79 1017.7
20260901163059 32 255 0.0 4.8 0.00 0.03 0.03 77 1017.8
20260901162553 31 130 0.0 4.8 0.00 0.03 0.03 77 1017.7
20260901162052 31 176 0.0 3.2 0.03 0.03 0.03 80 1017.7
20260901161553 31 319 0.0 3.2 0.03 0.03 0.03 80 1017.7
20260901161051 30 129 0.0 3.2 0.03 0.03 0.03 81 1017.7
20260901160555 30 53 0.0 4.8 0.03 0.03 0.03 81 1017.8
20260901160055 30 319 0.0 4.8 0.03 0.03 0.03 81 1017.8
20260901155550 30 334 0.0 4.8 0.03 0.03 0.03 83 1017.8
20260901155050 29 323 0.0 3.2 0.03 0.03 0.03 84 1017.9
20260901154550 29 257 0.0 1.6 0.03 0.03 0.03 84 1017.8
20260901154049 29 198 0.0 0.0 0.03 0.03 0.03 85 1017.8
20260901153549 29 170 0.0 1.6 0.03 0.03 0.03 85 1018.0
20260901153047 30 151 0.0 1.6 0.03 0.03 0.03 83 1018.1
20260901152545 30 300 0.0 3.2 0.03 0.03 0.03 82 1018.0
20260901152044 31 63 0.0 4.8 0.00 0.00 0.00 81 1018.1
20260901151544 31 172 0.0 4.8 0.00 0.00 0.00 80 1017.9
20260901151043 31 260 0.0 1.6 0.00 0.00 0.00 81 1017.9
20260901150541 31 276 0.0 1.6 0.00 0.00 0.00 78 1017.9
20260901150041 31 150 0.0 3.2 0.00 0.00 0.00 79 1017.9
20260901145542 31 169 0.0 3.2 0.00 0.00 0.00 78 1017.8
20260901145039 31 321 0.0 3.2 0.00 0.00 0.00 79 1017.8
20260901144537 31 338 0.0 3.2 0.00 0.00 0.00 81 1017.7
20260901144036 30 212 0.0 3.2 0.00 0.00 0.00 81 1017.7
20260901143534 30 169 0.0 1.6 0.00 0.00 0.00 83 1017.7
20260901143132 30 214 0.0 1.6 0.00 0.00 0.00 84 1017.7
20260901142530 30 76 0.0 3.2 0.00 0.00 0.00 83 1017.6
20260901142027 30 92 0.0 3.2 0.00 0.00 0.00 84 1017.6
20260901141526 30 325 0.0 3.2 0.00 0.00 0.00 85 1017.7
20260901141025 29 318 0.0 1.6 0.00 0.00 0.00 86 1017.6
20260901140522 28 113 0.0 1.6 0.00 0.00 0.00 86 1017.7
20260901140021 28 122 0.0 4.8 0.00 0.00 0.00 88 1017.7
20260901135525 28 124 0.0 4.8 0.00 0.00 0.00 87 1017.7
20260901135018 28 185 0.0 1.6 0.00 0.00 0.00 88 1017.7
20260901134517 27 266 0.0 1.6 0.00 0.00 0.00 89 1017.6
20260901134015 27 264 0.0 1.6 0.00 0.00 0.00 90 1017.7
20260901133515 27 183 0.0 1.6 0.00 0.00 0.00 90 1017.7
20260901133018 27 173 0.0 4.8 0.00 0.00 0.00 91 1017.7
20260901132510 26 325 0.0 4.8 0.00 0.00 0.00 92 1017.6
20260901132010 26 172 0.0 1.6 0.00 0.00 0.00 94 1017.7
20260901131507 26 253 0.0 1.6 0.00 0.00 0.00 95 1017.6
20260901131006 26 253 0.0 1.6 0.00 0.00 0.00 95 1017.7
20260901130506 26 312 0.0 0.0 0.00 0.00 0.00 95 1017.7
20260901130004 26 312 0.0 1.6 0.00 0.00 0.00 95 1017.7
20260901125503 26 312 0.0 1.6 0.00 0.00 0.00 95 1017.8
20260901125001 26 332 0.0 1.6 0.00 0.00 0.00 95 1017.7
20260901124501 25 290 0.0 1.6 0.00 0.00 0.00 95 1017.6
20260901124059 25 290 0.0 1.6 0.00 0.00 0.00 95 1017.7
20260901123559 25 290 0.0 0.0 0.00 0.00 0.00 95 1017.6
20260901123157 25 290 0.0 0.0 0.00 0.00 0.00 95 1017.4
20260901122556 25 294 0.0 0.0 0.00 0.00 0.00 95 1017.5
20260901122054 25 294 0.0 0.0 0.00 0.00 0.00 95 1017.5
20260901121604 25 294 0.0 0.0 0.00 0.00 0.00 95 1017.4
20260901121052 25 294 0.0 0.0 0.00 0.00 0.00 95 1017.3
20260901120552 25 294 0.0 0.0 0.00 0.00 0.00 95 1017.3
20260901120055 25 326 0.0 0.0 0.00 0.00 0.00 95 1017.3
20260901115550 25 326 0.0 1.6 0.00 0.00 0.00 95 1017.1
20260901115049 25 326 0.0 1.6 0.00 0.00 0.00 95 1017.2
20260901114548 25 326 0.0 0.0 0.00 0.00 0.00 95 1017.1
20260901114047 25 326 0.0 0.0 0.00 0.00 0.00 95 1017.0
20260901113547 25 326 0.0 0.0 0.00 0.00 0.00 95 1017.0
20260901113146 24 326 0.0 0.0 0.00 0.00 0.00 95 1017.0
20260901112545 24 326 0.0 0.0 0.00 0.00 0.00 95 1016.8
20260901112043 24 326 0.0 0.0 0.00 0.00 0.00 95 1016.7
20260901111544 24 326 0.0 0.0 0.00 0.00 0.00 95 1016.7
20260901111045 24 326 0.0 0.0 0.00 0.00 0.00 95 1016.6
20260901110541 24 326 0.0 0.0 0.00 0.00 0.00 95 1016.6
20260901110041 24 326 0.0 0.0 0.00 0.00 0.00 95 1016.4
20260901105540 24 326 0.0 0.0 0.00 0.00 0.00 95 1016.4
20260901105038 24 326 0.0 0.0 0.00 0.00 0.00 95 1016.4
20260901104553 24 326 0.0 0.0 0.00 0.00 0.00 95 1016.3
20260901104038 24 326 0.0 0.0 0.00 0.00 0.00 95 1016.3
20260901103542 24 326 0.0 0.0 0.00 0.00 0.00 95 1016.3
20260901103036 24 326 0.0 0.0 0.00 0.00 0.00 95 1016.4
20260901102536 24 326 0.0 0.0 0.00 0.00 0.00 95 1016.2
20260901102035 24 326 0.0 0.0 0.00 0.00 0.00 95 1016.1
20260901101536 24 326 0.0 0.0 0.00 0.00 0.00 95 1016.2
20260901101033 24 326 0.0 0.0 0.00 0.00 0.00 95 1016.1
20260901100535 24 326 0.0 0.0 0.00 0.00 0.00 95 1016.1
20260901100036 24 326 0.0 0.0 0.00 0.00 0.00 95 1016.1
20260901095530 24 323 0.0 0.0 0.00 0.00 0.00 95 1016.1
20260901095031 24 323 0.0 0.0 0.00 0.00 0.00 95 1016.1
20260901094533 24 323 0.0 0.0 0.00 0.00 0.00 95 1016.0
20260901094030 24 323 0.0 0.0 0.00 0.00 0.00 95 1016.1
20260901093534 24 323 0.0 0.0 0.00 0.00 0.00 95 1016.0
20260901093129 24 323 0.0 0.0 0.00 0.00 0.00 95 1016.0
20260901092531 24 323 0.0 0.0 0.00 0.00 0.00 94 1016.0
20260901092026 24 323 0.0 0.0 0.00 0.00 0.00 94 1016.1
20260901091526 24 323 0.0 0.0 0.00 0.00 0.00 94 1015.9
20260901091024 24 323 0.0 0.0 0.00 0.00 0.00 94 1016.0
20260901090526 24 323 0.0 0.0 0.00 0.00 0.00 94 1015.9
20260901090022 24 323 0.0 0.0 0.00 0.00 0.00 94 1016.0
20260901085622 24 323 0.0 0.0 0.00 0.00 0.00 94 1015.9
20260901085021 24 323 0.0 0.0 0.00 0.00 0.00 94 1015.9
20260901084521 24 323 0.0 0.0 0.00 0.00 0.00 94 1015.9
20260901084021 24 323 0.0 0.0 0.00 0.00 0.00 94 1016.0
20260901083520 24 323 0.0 0.0 0.00 0.00 0.00 94 1015.9
20260901083024 24 323 0.0 0.0 0.00 0.00 0.00 94 1015.8
20260901082519 24 323 0.0 0.0 0.00 0.00 0.00 94 1015.9
20260901082019 24 323 0.0 0.0 0.00 0.00 0.00 94 1015.9
20260901081521 24 323 0.0 0.0 0.00 0.00 0.00 94 1015.8
20260901081017 24 323 0.0 0.0 0.00 0.00 0.00 94 1015.8
20260901080517 24 323 0.0 0.0 0.00 0.00 0.00 94 1015.9
20260901080016 24 323 0.0 0.0 0.00 0.00 0.00 94 1015.8
20260901075516 24 323 0.0 0.0 0.00 0.00 0.00 94 1015.9
20260901075015 24 323 0.0 0.0 0.00 0.00 0.00 94 1016.0
20260901074515 24 323 0.0 0.0 0.00 0.00 0.00 94 1015.9
20260901074012 24 323 0.0 0.0 0.00 0.00 0.00 94 1016.0
20260901073514 24 323 0.0 0.0 0.00 0.00 0.00 94 1016.1
20260901073012 24 323 0.0 0.0 0.00 0.00 0.00 94 1016.2
20260901072509 24 323 0.0 0.0 0.00 0.00 0.00 94 1016.2
20260901072013 24 323 0.0 0.0 0.00 0.00 0.00 94 1016.3
20260901071513 24 323 0.0 0.0 0.00 0.00 0.00 94 1016.3
20260901071006 24 323 0.0 0.0 0.00 0.00 0.00 94 1016.5
20260901070506 24 323 0.0 0.0 0.00 0.00 0.00 94 1016.5
20260901070005 24 323 0.0 0.0 0.00 0.00 0.00 94 1016.5
20260901065505 24 323 0.0 0.0 0.00 0.00 0.00 94 1016.6
20260901065007 24 323 0.0 0.0 0.00 0.00 0.00 94 1016.7
20260901064503 24 323 0.0 0.0 0.00 0.00 0.00 94 1016.6
20260901064003 24 323 0.0 0.0 0.00 0.00 0.00 94 1016.6
20260901063502 24 323 0.0 0.0 0.00 0.00 0.00 94 1016.6
20260901063001 24 323 0.0 0.0 0.00 0.00 0.00 94 1016.7
20260901062559 24 323 0.0 0.0 0.00 0.00 0.00 94 1016.7
20260901062058 24 323 0.0 0.0 0.00 0.00 0.00 94 1016.7
20260901061602 24 323 0.0 0.0 0.00 0.00 0.00 94 1016.8
20260901061056 24 323 0.0 0.0 0.00 0.00 0.00 94 1016.8
20260901060558 24 323 0.0 0.0 0.00 0.00 0.00 94 1016.8
20260901060055 24 323 0.0 0.0 0.00 0.00 0.00 94 1016.9
20260901055554 24 323 0.0 0.0 0.00 0.00 0.00 93 1017.0
20260901055052 24 323 0.0 0.0 0.00 0.00 0.00 93 1017.0
20260901054553 24 323 0.0 0.0 0.00 0.00 0.00 94 1017.1
20260901054051 24 323 0.0 0.0 0.00 0.00 0.00 93 1017.1
20260901053551 24 323 0.0 0.0 0.00 0.00 0.00 93 1017.0
20260901053103 25 323 0.0 0.0 0.00 0.00 0.00 93 1017.0
20260901052547 25 323 0.0 0.0 0.00 0.00 0.00 93 1017.1
20260901052050 25 323 0.0 0.0 0.00 0.00 0.00 93 1017.1
20260901051549 25 323 0.0 0.0 0.00 0.00 0.00 93 1017.1
20260901051047 25 323 0.0 0.0 0.00 0.00 0.00 93 1017.1
20260901050547 25 323 0.0 0.0 0.00 0.00 0.00 93 1017.0
20260901050043 25 323 0.0 0.0 0.00 0.00 0.00 93 1017.1
20260901045544 25 323 0.0 0.0 0.00 0.00 0.00 93 1017.2
20260901045042 25 323 0.0 0.0 0.00 0.00 0.00 93 1017.3
20260901044554 25 323 0.0 0.0 0.00 0.00 0.00 93 1017.2
20260901044043 25 323 0.0 0.0 0.00 0.00 0.00 93 1017.2
20260901043540 25 323 0.0 0.0 0.00 0.00 0.00 93 1017.3
20260901043039 25 323 0.0 0.0 0.00 0.00 0.00 93 1017.2
20260901042538 25 323 0.0 0.0 0.00 0.00 0.00 93 1017.3
20260901042036 25 323 0.0 0.0 0.00 0.00 0.00 93 1017.3
20260901041536 25 323 0.0 0.0 0.00 0.00 0.00 93 1017.4
20260901041036 25 323 0.0 0.0 0.00 0.00 0.00 93 1017.4
20260901040534 25 323 0.0 0.0 0.00 0.00 0.00 93 1017.5
20260901040037 25 323 0.0 0.0 0.00 0.00 0.00 93 1017.5
20260901035532 25 323 0.0 0.0 0.00 0.00 0.00 93 1017.5
20260901035034 25 323 0.0 0.0 0.00 0.00 0.00 93 1017.5
20260901034530 25 323 0.0 0.0 0.00 0.00 0.00 92 1017.4
20260901034030 25 323 0.0 0.0 0.00 0.00 0.00 92 1017.5
20260901033529 25 323 0.0 0.0 0.00 0.00 0.00 92 1017.5
20260901033029 25 323 0.0 0.0 0.00 0.00 0.00 92 1017.6
20260901032529 25 323 0.0 0.0 0.00 0.00 0.00 92 1017.6
20260901032028 25 323 0.0 0.0 0.00 0.00 0.00 92 1017.6
20260901031526 25 323 0.0 0.0 0.00 0.00 0.00 92 1017.5
20260901031025 25 323 0.0 0.0 0.00 0.00 0.00 92 1017.6
20260901030525 25 323 0.0 0.0 0.00 0.00 0.00 92 1017.6
20260901030024 25 323 0.0 0.0 0.00 0.00 0.00 92 1017.7
20260901025525 25 323 0.0 0.0 0.00 0.00 0.00 92 1017.7
20260901025023 25 323 0.0 0.0 0.00 0.00 0.00 92 1017.7
20260901024528 25 323 0.0 0.0 0.00 0.00 0.00 91 1017.7
20260901024024 25 323 0.0 0.0 0.00 0.00 0.00 91 1017.7
20260901023521 25 323 0.0 0.0 0.00 0.00 0.00 91 1017.7
20260901023022 25 323 0.0 0.0 0.00 0.00 0.00 91 1017.7
20260901022520 25 323 0.0 0.0 0.00 0.00 0.00 91 1017.7
20260901022020 26 323 0.0 0.0 0.00 0.00 0.00 91 1017.7
20260901021519 26 323 0.0 0.0 0.00 0.00 0.00 90 1017.6
20260901021019 26 323 0.0 0.0 0.00 0.00 0.00 91 1017.7
20260901020518 26 323 0.0 0.0 0.00 0.00 0.00 90 1017.6
20260901020018 26 323 0.0 0.0 0.00 0.00 0.00 90 1017.6
20260901015517 26 323 0.0 0.0 0.00 0.00 0.00 90 1017.7
20260901015018 26 323 0.0 0.0 0.00 0.00 0.00 90 1017.7
20260901014517 26 323 0.0 0.0 0.00 0.00 0.00 90 1017.6
20260901014015 26 323 0.0 0.0 0.00 0.00 0.00 90 1017.5
20260901013515 26 323 0.0 0.0 0.00 0.00 0.00 90 1017.3
20260901013020 26 323 0.0 0.0 0.00 0.00 0.00 89 1017.4
20260901012521 26 323 0.0 0.0 0.00 0.00 0.00 89 1017.3
20260901012016 26 323 0.0 0.0 0.00 0.00 0.00 89 1017.3
20260901011513 26 323 0.0 0.0 0.00 0.00 0.00 89 1017.2
20260901011012 26 323 0.0 0.0 0.00 0.00 0.00 88 1017.1
20260901010511 26 323 0.0 0.0 0.00 0.00 0.00 88 1017.1
20260901010013 26 355 0.0 1.6 0.00 0.00 0.00 88 1017.0
20260901005511 26 355 0.0 3.2 0.00 0.00 0.00 88 1016.9
20260901005011 26 360 0.0 3.2 0.00 0.00 0.00 88 1016.9
20260901004528 26 304 0.0 0.0 0.00 0.00 0.00 87 1017.0
20260901004010 26 304 0.0 0.0 0.00 0.00 0.00 87 1017.0
20260901003511 26 304 0.0 0.0 0.00 0.00 0.00 87 1017.1
20260901003011 26 304 0.0 0.0 0.00 0.00 0.00 86 1017.1
20260901002509 26 304 0.0 0.0 0.00 0.00 0.00 86 1017.0
20260901002009 26 304 0.0 0.0 0.00 0.00 0.00 86 1017.0
20260901001519 26 304 0.0 0.0 0.00 0.00 0.00 86 1016.9
20260901001009 27 304 0.0 1.6 0.00 0.00 0.00 86 1016.8
20260901000508 27 304 0.0 1.6 0.00 0.00 0.00 85 1016.8
20260901000012 27 209 0.0 1.6 0.00 0.00 0.00 85 1016.8
20260831235505 27 195 0.0 1.6 0.00 0.00 0.00 85 1016.7
20260831235007 27 319 0.0 1.6 0.00 0.00 0.00 85 1016.7
20260831234505 27 319 0.0 3.2 0.00 0.00 0.00 85 1016.8
20260831234004 27 319 0.0 3.2 0.00 0.00 0.00 84 1016.7
20260831233504 27 304 0.0 3.2 0.00 0.00 0.00 84 1016.7
20260831233002 27 328 0.0 1.6 0.00 0.00 0.00 84 1016.9
20260831232501 27 314 0.0 1.6 0.00 0.00 0.00 83 1017.0
20260831232100 28 304 0.0 1.6 0.00 0.00 0.00 83 1017.0
20260831231601 28 304 0.0 3.2 0.00 0.00 0.00 83 1017.0
20260831231100 28 70 0.0 6.4 0.00 0.00 0.00 82 1016.9
20260831230558 28 184 0.0 3.2 0.00 0.00 0.00 82 1016.9
20260831225558 28 285 0.0 1.6 0.00 0.00 0.00 81 1016.9
20260831225057 28 168 0.0 8.0 0.00 0.00 0.00 81 1017.0
20260831224600 28 311 0.0 8.0 0.00 0.00 0.00 80 1016.9
20260831224057 29 342 0.0 6.4 0.00 0.00 0.00 79 1016.7
20260831223556 30 283 0.0 8.0 0.00 0.00 0.00 79 1016.6
20260831223054 30 288 0.0 9.7 0.00 0.00 0.00 78 1016.7
20260831222554 30 348 1.6 9.7 0.00 0.00 0.00 77 1016.7
20260831222053 31 314 0.0 4.8 0.00 0.00 0.00 76 1016.5
20260831221554 31 323 0.0 4.8 0.00 0.00 0.00 76 1016.5
20260831221052 31 220 0.0 4.8 0.00 0.00 0.00 77 1016.5
20260831220551 31 301 0.0 6.4 0.00 0.00 0.00 75 1016.3
20260831220052 31 304 0.0 6.4 0.00 0.00 0.00 74 1016.4
20260831215550 31 297 1.6 6.4 0.00 0.00 0.00 73 1016.5
20260831215049 32 326 0.0 8.0 0.00 0.00 0.00 73 1016.5
20260831214618 31 340 0.0 8.0 0.00 0.00 0.00 74 1016.4
20260831214048 31 338 0.0 4.8 0.00 0.00 0.00 73 1016.5
20260831213548 31 333 0.0 6.4 0.00 0.00 0.00 74 1016.6
20260831213048 31 304 0.0 6.4 0.00 0.00 0.00 74 1016.5
20260831212547 31 255 1.6 8.0 0.00 0.00 0.00 73 1016.5
20260831212150 32 213 1.6 6.4 0.00 0.00 0.00 73 1016.5
20260831211546 32 142 0.0 4.8 0.00 0.00 0.00 74 1016.5
20260831211047 32 268 0.0 6.4 0.00 0.00 0.00 75 1016.5
20260831210550 32 309 1.6 6.4 0.00 0.00 0.00 73 1016.6
20260831210043 32 290 1.6 8.0 0.00 0.00 0.00 72 1016.6
20260831205543 32 331 1.6 8.0 0.00 0.00 0.00 72 1016.7
20260831205042 32 304 0.0 6.4 0.00 0.00 0.00 74 1016.6
20260831204542 32 290 0.0 4.8 0.00 0.00 0.00 73 1016.6
20260831204041 32 250 0.0 11.3 0.00 0.00 0.00 74 1016.7
20260831203544 32 343 3.2 11.3 0.00 0.00 0.00 71 1016.7
20260831203039 33 268 0.0 17.7 0.00 0.00 0.00 72 1016.6
20260831202542 32 295 1.6 17.7 0.00 0.00 0.00 74 1016.6
20260831202038 32 114 1.6 6.4 0.00 0.00 0.00 75 1016.6
20260831201539 32 305 3.2 9.7 0.00 0.00 0.00 72 1016.5